TimeCST,TemperatureF,Dew PointF,Humidity,Sea Level PressureIn,VisibilityMPH,Wind Direction,Wind SpeedMPH,Gust SpeedMPH,PrecipitationIn,Events,Conditions,WindDirDegrees,DateUTC
12:15 AM,30.2,26.6,86,30.15,10.0,Calm,Calm,-,N/A,,Clear,0,2013-02-12 06:15:00
12:35 AM,28.4,24.8,86,30.15,10.0,Calm,Calm,-,N/A,,Clear,0,2013-02-12 06:35:00
12:55 AM,28.4,24.8,86,30.15,10.0,NNW,3.5,-,N/A,,Clear,330,2013-02-12 06:55:00
1:15 AM,28.4,24.8,86,30.15,10.0,Calm,Calm,-,N/A,,Clear,0,2013-02-12 07:15:00
1:35 AM,28.4,24.8,86,30.16,10.0,Calm,Calm,-,N/A,,Clear,0,2013-02-12 07:35:00
1:55 AM,28.4,26.6,93,30.16,10.0,Calm,Calm,-,N/A,,Clear,0,2013-02-12 07:55:00
2:15 AM,28.4,24.8,86,30.15,10.0,Calm,Calm,-,N/A,,Clear,0,2013-02-12 08:15:00
2:35 AM,26.6,24.8,93,30.16,10.0,NW,3.5,-,N/A,,Clear,310,2013-02-12 08:35:00
2:55 AM,24.8,24.8,100,30.16,10.0,Calm,Calm,-,N/A,,Clear,0,2013-02-12 08:55:00
3:15 AM,26.6,24.8,93,30.16,10.0,Calm,Calm,-,N/A,,Clear,0,2013-02-12 09:15:00
3:35 AM,26.6,24.8,93,30.16,10.0,Calm,Calm,-,N/A,,Clear,0,2013-02-12 09:35:00
3:55 AM,26.6,24.8,93,30.15,10.0,Calm,Calm,-,N/A,,Clear,0,2013-02-12 09:55:00
4:15 AM,26.6,24.8,93,30.15,10.0,Calm,Calm,-,N/A,,Clear,0,2013-02-12 10:15:00
4:35 AM,26.6,24.8,93,30.15,10.0,Calm,Calm,-,N/A,,Clear,0,2013-02-12 10:35:00
4:55 AM,24.8,23.0,93,30.16,10.0,Calm,Calm,-,N/A,,Clear,0,2013-02-12 10:55:00
5:15 AM,24.8,24.8,100,30.15,10.0,Calm,Calm,-,N/A,,Clear,0,2013-02-12 11:15:00
5:35 AM,24.8,24.8,100,30.15,10.0,Calm,Calm,-,N/A,,Clear,0,2013-02-12 11:35:00
5:55 AM,23.0,23.0,100,30.15,10.0,Calm,Calm,-,N/A,,Clear,0,2013-02-12 11:55:00
6:15 AM,24.8,24.8,100,30.14,10.0,Calm,Calm,-,N/A,,Clear,0,2013-02-12 12:15:00
6:35 AM,24.8,24.8,100,30.15,10.0,Calm,Calm,-,N/A,,Clear,0,2013-02-12 12:35:00
6:55 AM,24.8,23.0,93,30.16,10.0,Calm,Calm,-,N/A,,Clear,0,2013-02-12 12:55:00
7:15 AM,24.8,23.0,93,30.15,10.0,Calm,Calm,-,N/A,,Clear,0,2013-02-12 13:15:00
7:35 AM,24.8,24.8,100,30.16,10.0,Calm,Calm,-,N/A,,Clear,0,2013-02-12 13:35:00
7:55 AM,26.6,24.8,93,30.17,10.0,Calm,Calm,-,N/A,,Clear,0,2013-02-12 13:55:00
8:15 AM,28.4,26.6,93,30.16,10.0,NW,3.5,-,N/A,,Clear,320,2013-02-12 14:15:00
8:35 AM,28.4,26.6,93,30.16,10.0,Calm,Calm,-,N/A,,Clear,0,2013-02-12 14:35:00
8:55 AM,28.4,28.4,100,30.17,10.0,Calm,Calm,-,N/A,,Clear,0,2013-02-12 14:55:00
9:15 AM,30.2,28.4,93,30.16,10.0,Calm,Calm,-,N/A,,Clear,0,2013-02-12 15:15:00
9:35 AM,32.0,28.4,87,30.14,10.0,Calm,Calm,-,N/A,,Clear,0,2013-02-12 15:35:00
9:55 AM,32.0,30.2,93,30.12,10.0,Calm,Calm,-,N/A,,Clear,0,2013-02-12 15:55:00
10:15 AM,35.6,32.0,87,30.11,10.0,Calm,Calm,-,N/A,,Clear,0,2013-02-12 16:15:00
10:35 AM,37.4,32.0,81,30.12,10.0,Calm,Calm,-,N/A,,Clear,0,2013-02-12 16:35:00
10:55 AM,37.4,32.0,81,30.13,10.0,WSW,3.5,-,N/A,,Clear,240,2013-02-12 16:55:00
11:15 AM,39.2,32.0,75,30.11,10.0,Calm,Calm,-,N/A,,Clear,0,2013-02-12 17:15:00
11:35 AM,39.2,32.0,75,30.10,10.0,Calm,Calm,-,N/A,,Clear,0,2013-02-12 17:35:00
11:55 AM,41.0,30.2,65,30.10,10.0,SE,3.5,-,N/A,,Clear,140,2013-02-12 17:55:00
12:15 PM,41.0,30.2,65,30.11,10.0,SSE,5.8,-,N/A,,Clear,160,2013-02-12 18:15:00
12:35 PM,41.0,30.2,65,30.11,10.0,South,5.8,-,N/A,,Clear,180,2013-02-12 18:35:00
12:55 PM,41.0,30.2,65,30.09,10.0,SSE,5.8,-,N/A,,Clear,160,2013-02-12 18:55:00
1:15 PM,41.0,28.4,61,30.09,10.0,SSE,4.6,-,N/A,,Clear,150,2013-02-12 19:15:00
1:35 PM,42.8,28.4,57,30.06,10.0,South,3.5,-,N/A,,Clear,170,2013-02-12 19:35:00
1:55 PM,42.8,26.6,53,30.05,10.0,Calm,Calm,-,N/A,,Clear,0,2013-02-12 19:55:00
2:15 PM,42.8,26.6,53,30.05,10.0,SSE,3.5,-,N/A,,Clear,160,2013-02-12 20:15:00
2:35 PM,44.6,28.4,53,30.05,10.0,SSE,6.9,-,N/A,,Clear,150,2013-02-12 20:35:00
2:55 PM,44.6,28.4,53,30.03,10.0,SE,3.5,-,N/A,,Clear,140,2013-02-12 20:55:00
3:15 PM,44.6,28.4,53,30.03,10.0,Calm,Calm,-,N/A,,Clear,0,2013-02-12 21:15:00
3:35 PM,44.6,26.6,49,30.01,10.0,Calm,Calm,-,N/A,,Clear,0,2013-02-12 21:35:00
3:55 PM,44.6,26.6,49,30.00,10.0,North,3.5,-,N/A,,Clear,360,2013-02-12 21:55:00
4:15 PM,44.6,24.8,46,30.00,10.0,Calm,Calm,-,N/A,,Clear,0,2013-02-12 22:15:00
4:35 PM,44.6,26.6,49,30.01,10.0,Calm,Calm,-,N/A,,Clear,0,2013-02-12 22:35:00
4:55 PM,44.6,26.6,49,30.00,10.0,Calm,Calm,-,N/A,,Clear,0,2013-02-12 22:55:00
5:15 PM,42.8,26.6,53,29.99,10.0,Calm,Calm,-,N/A,,Clear,0,2013-02-12 23:15:00
5:35 PM,42.8,26.6,53,29.99,10.0,Calm,Calm,-,N/A,,Clear,0,2013-02-12 23:35:00
5:55 PM,41.0,26.6,57,29.98,10.0,Calm,Calm,-,N/A,,Clear,0,2013-02-12 23:55:00
6:15 PM,41.0,26.6,57,29.97,10.0,Calm,Calm,-,N/A,,Clear,0,2013-02-13 00:15:00
6:35 PM,39.2,26.6,61,29.97,10.0,Calm,Calm,-,N/A,,Scattered Clouds,0,2013-02-13 00:35:00
6:55 PM,35.6,28.4,75,29.96,10.0,SSE,4.6,-,N/A,,Scattered Clouds,150,2013-02-13 00:55:00
7:15 PM,37.4,28.4,70,29.97,10.0,Calm,Calm,-,N/A,,Mostly Cloudy,0,2013-02-13 01:15:00
7:35 PM,37.4,28.4,70,29.96,10.0,Calm,Calm,-,N/A,,Overcast,0,2013-02-13 01:35:00
7:55 PM,37.4,30.2,75,29.96,10.0,Calm,Calm,-,N/A,,Overcast,0,2013-02-13 01:55:00
8:15 PM,37.4,28.4,70,29.95,10.0,Calm,Calm,-,N/A,,Overcast,0,2013-02-13 02:15:00
8:35 PM,39.2,26.6,61,29.95,10.0,North,3.5,-,N/A,,Overcast,350,2013-02-13 02:35:00
8:55 PM,39.2,26.6,61,29.95,10.0,NE,5.8,-,N/A,,Overcast,40,2013-02-13 02:55:00
9:15 PM,39.2,26.6,61,29.95,10.0,NNE,6.9,-,N/A,,Overcast,30,2013-02-13 03:15:00
9:35 PM,39.2,26.6,61,29.95,10.0,North,5.8,-,N/A,,Overcast,10,2013-02-13 03:35:00
9:55 PM,39.2,26.6,61,29.95,10.0,North,4.6,-,N/A,,Overcast,360,2013-02-13 03:55:00
10:15 PM,39.2,26.6,61,29.96,10.0,Calm,Calm,-,N/A,,Overcast,0,2013-02-13 04:15:00
10:35 PM,37.4,28.4,70,29.96,10.0,Calm,Calm,-,N/A,,Overcast,0,2013-02-13 04:35:00
10:55 PM,37.4,28.4,70,29.96,10.0,Calm,Calm,-,N/A,,Overcast,0,2013-02-13 04:55:00
11:15 PM,35.6,30.2,81,29.96,10.0,Calm,Calm,-,N/A,,Overcast,0,2013-02-13 05:15:00
11:35 PM,35.6,32.0,87,29.96,10.0,Calm,Calm,-,N/A,,Overcast,0,2013-02-13 05:35:00
11:55 PM,35.6,28.4,75,29.96,10.0,Calm,Calm,-,N/A,,Overcast,0,2013-02-13 05:55:00